EDT,Max TemperatureF,Mean TemperatureF,Min TemperatureF,Max Dew PointF,MeanDew PointF,Min DewpointF,Max Humidity, Mean Humidity, Min Humidity, Max Sea Level PressureIn, Mean Sea Level PressureIn, Min Sea Level PressureIn, Max VisibilityMiles, Mean VisibilityMiles, Min VisibilityMiles, Max Wind SpeedMPH, Mean Wind SpeedMPH, Max Gust SpeedMPH,PrecipitationIn, CloudCover, Events, WindDirDegrees
2013-6-1,91,76,61,69,65,60,93,70,47,29.98,29.92,29.86,10,9,5,15,4,20,0.00,0,,214
2013-6-2,87,78,68,68,67,65,93,72,51,29.86,29.78,29.72,10,10,6,16,7,25,0.00,1,,202
2013-6-3,77,67,56,70,63,48,100,74,47,29.91,29.82,29.77,10,7,1,14,3,18,1.20,7,Rain-Thunderstorm,351
2013-6-4,75,61,46,49,44,38,93,59,25,30.11,29.99,29.92,10,10,10,15,4,20,0.00,0,,325
2013-6-5,76,60,44,48,45,42,100,68,35,30.21,30.14,30.09,10,10,10,10,2,13,0.00,0,,208
2013-6-6,71,61,50,57,52,46,93,71,49,30.15,30.08,30.01,10,10,5,14,4,22,0.12,4,Rain,152
2013-6-7,62,59,56,61,57,54,100,92,84,30.03,29.86,29.70,10,5,1,12,6,16,1.82,8,Rain,32
2013-6-8,76,66,55,61,56,54,100,79,58,30.04,29.79,29.66,10,8,2,14,5,17,0.08,6,Rain,335
2013-6-9,80,67,54,61,56,54,100,71,42,30.15,30.11,30.06,10,8,0,10,2,14,0.00,1,Fog,247
2013-6-10,72,65,58,65,60,57,100,92,84,30.16,30.02,29.83,10,6,1,12,3,18,1.04,8,Rain,111
2013-6-11,76,69,61,67,62,54,100,80,59,29.81,29.68,29.58,10,7,2,22,7,29,0.17,7,Rain,248
2013-6-12,75,65,55,56,53,50,93,68,43,29.83,29.76,29.66,10,10,10,21,8,30,0.00,4,,297
2013-6-13,60,56,52,58,55,51,100,92,84,29.82,29.66,29.57,10,5,0,13,5,21,1.69,7,Fog-Rain,34
2013-6-14,76,64,52,56,53,51,93,70,46,29.87,29.74,29.61,10,9,4,16,5,22,0.34,5,Rain,337
2013-6-15,80,65,50,56,51,46,100,65,30,29.98,29.93,29.88,10,9,4,15,2,18,0.00,0,,273
2013-6-16,79,65,50,62,56,49,96,70,43,29.97,29.86,29.72,10,10,8,23,4,28,0.00,2,,218
2013-6-17,87,73,58,64,61,55,100,68,35,29.90,29.85,29.80,10,9,3,22,3,31,0.02,1,,239
2013-6-18,79,69,58,66,61,55,100,82,64,29.91,29.88,29.83,10,10,7,16,5,21,0.02,3,Rain,360
2013-6-19,75,64,53,53,49,45,93,64,35,30.17,30.03,29.91,10,10,10,13,5,18,0.00,1,,12
2013-6-20,80,64,47,56,51,46,96,66,35,30.26,30.21,30.17,10,10,10,12,2,17,0.00,0,,194
2013-6-21,84,70,56,62,58,54,93,70,47,30.26,30.23,30.19,10,10,10,13,5,18,0.00,0,,214
2013-6-22,85,72,58,65,59,56,93,68,43,30.23,30.17,30.08,10,10,10,15,5,20,0.00,0,,200
2013-6-23,92,79,66,69,64,57,82,60,38,30.15,30.08,30.01,10,10,10,14,5,20,0.00,2,,197
2013-6-24,94,81,68,70,68,64,97,71,44,30.03,29.99,29.91,10,9,2,18,4,25,0.08,2,Rain-Thunderstorm,211
2013-6-25,90,78,65,76,70,64,100,74,47,29.98,29.86,29.77,10,6,0,25,3,36,0.78,1,Fog-Rain-Thunderstorm,249
2013-6-26,83,76,68,72,69,66,100,81,62,29.82,29.79,29.75,10,7,1,15,4,21,0.08,2,Rain,225
2013-6-27,85,76,67,73,69,66,100,80,59,29.82,29.73,29.50,10,4,0,17,4,26,0.89,6,Fog-Rain,114
2013-6-28,85,77,68,72,68,64,93,72,51,29.53,29.49,29.44,10,7,2,17,6,24,0.34,6,Rain-Thunderstorm,214
2013-6-29,85,75,65,67,65,62,100,74,48,29.68,29.56,29.48,10,8,2,14,5,21,0.00,1,,208
2013-6-30,84,75,66,73,69,64,100,85,69,29.90,29.83,29.69,10,5,0,20,3,24,1.15,5,Fog-Rain-Thunderstorm,50